Location: Newark
(40.9833°N, 0.0333°W)
Time: 01:22:49
(UTC+00:00)

deb Explorer IX - Pass Details

Date: 01 November 2020
Orbit: 537 x 1105 km, 38.8° (Epoch: 02 December)

Event Time Altitude Azimuth Distance (km) Brightness Sun altitude
Rises 03:37:50 0° 230° (SW) 3,056 - -33.1°
Reaches altitude 10° 03:40:11 10° 223° (SW) 2,224 - -32.7°
Maximum altitude 03:45:04 40° 155° (SSE) 1,194 - -31.8°
Exits shadow 03:45:34 39° 142° (SE) 1,223 ? -31.7°
Drops below altitude 10° 03:50:46 10° 88° (E) 2,605 ? -30.7°
Sets 03:53:43 0° 81° (E) 3,643 ? -30.2°
